Weather History for Brainerd, MN

Change the Weather History Date:

Thursday, April 3, 2014

  Actual Average Record
Temperature  
Mean Temperature 34 °F -  
Max Temperature 37 °F 48 °F 68 °F (1991)
Min Temperature 30 °F 24 °F -8 °F (1975)
Degree Days  
Heating Degree Days 32    
Moisture  
Dew Point 23 °F    
Average Humidity 66    
Maximum Humidity 79    
Minimum Humidity 47    
Precipitation  
Precipitation 0.02 in - - ()
Sea Level Pressure  
Sea Level Pressure 30.00 in    
Wind  
Wind Speed 9 mph (ENE)    
Max Wind Speed 17 mph    
Max Gust Speed 24 mph    
Visibility 4 miles    
Events Snow    
Averages and records for this station are not official NWS values.
T = Trace of Precipitation, MM = Missing Value Source: NWS Daily Summary

Daily Weather History Graph

Daily Weather History Graph

Search for Another Location

Airport:

Trip Planner

Search our weather history database for the weather conditions in past years. The results will help you decide how hot, cold, wet, or windy it might be!

Date:

Astronomy

Apr. 03, 2014 Rise Set
Actual Time 6:52 AM CDT 7:48 PM CDT
Civil Twilight 6:21 AM CDT 8:18 PM CDT
Nautical Twilight 5:45 AM CDT 8:55 PM CDT
Astronomical Twilight 5:06 AM CDT 9:34 PM CDT
Moon 9:10 AM CDT (4/3) No Moon Set
Length of Visible Light 13h 57m
Length of Day
12h 55m
Waxing Crescent, 17% of the Moon is Illuminated
Apr 3
Waxing Crescent
Apr 7
First Quarter
Apr 15
Full
Apr 22
Last Quarter
Apr 29
New

Hourly Weather History & Observations

Time (CDT) Temp. Windchill Dew Point Humidity Pressure Visibility Wind Dir Wind Speed Gust Speed Precip Events Conditions
12:53 AM 37.9 °F 35.5 °F 19.0 °F 47% 30.17 in 10.0 mi ENE 3.5 mph - N/A   Overcast
1:48 AM 37.4 °F 32.8 °F 19.4 °F 48% 30.11 in 8.0 mi East 5.8 mph - N/A   Overcast
1:53 AM 37.0 °F 31.0 °F 19.9 °F 50% 30.15 in 6.0 mi East 8.1 mph 19.6 mph 0.00 in Snow Light Snow
2:04 AM 35.1 °F 28.6 °F 23.0 °F 61% 30.10 in 1.8 mi ENE 8.1 mph - 0.00 in Snow Light Snow
2:12 AM 34.0 °F 27.2 °F 24.1 °F 67% 30.10 in 2.0 mi ENE 8.1 mph - 0.00 in Snow Light Snow
2:29 AM 34.0 °F 31.0 °F 25.0 °F 70% 30.10 in 3.0 mi ENE 3.5 mph - 0.00 in Snow Light Snow
2:41 AM 34.0 °F 26.6 °F 24.1 °F 67% 30.08 in 4.0 mi ENE 9.2 mph - 0.00 in Snow Light Snow
2:53 AM 35.1 °F 28.6 °F 21.9 °F 59% 30.11 in 6.0 mi ENE 8.1 mph - 0.00 in Snow Light Snow
3:53 AM 34.0 °F 28.0 °F 24.1 °F 67% 30.09 in 8.0 mi East 6.9 mph - 0.00 in Snow Light Snow
4:53 AM 34.0 °F 26.6 °F 24.1 °F 67% 30.08 in 3.0 mi ENE 9.2 mph - 0.00 in Snow Light Snow
5:53 AM 34.0 °F 28.8 °F 21.9 °F 61% 30.08 in 10.0 mi ENE 5.8 mph - 0.00 in   Overcast
6:53 AM 34.0 °F 28.0 °F 23.0 °F 64% 30.07 in 10.0 mi NE 6.9 mph - N/A   Overcast
7:53 AM 34.0 °F 27.2 °F 19.0 °F 54% 30.07 in 10.0 mi ENE 8.1 mph - N/A   Overcast
8:53 AM 35.1 °F 27.9 °F 18.0 °F 50% 30.06 in 10.0 mi NE 9.2 mph - N/A   Overcast
9:53 AM 36.0 °F 29.6 °F 18.0 °F 48% 30.05 in 10.0 mi East 8.1 mph - N/A   Overcast
10:34 AM 36.0 °F 29.6 °F 18.0 °F 48% 30.00 in 10.0 mi ENE 8.1 mph 18.4 mph N/A   Overcast
10:53 AM 37.0 °F 31.0 °F 19.0 °F 48% 30.04 in 10.0 mi ENE 8.1 mph - N/A   Overcast
11:11 AM 37.0 °F 29.8 °F 19.0 °F 48% 29.99 in 10.0 mi ENE 10.4 mph - N/A   Overcast
11:53 AM 37.0 °F 29.3 °F 19.9 °F 50% 30.03 in 10.0 mi ENE 11.5 mph 17.3 mph N/A   Overcast
12:35 PM 36.0 °F 28.0 °F 21.9 °F 57% 29.99 in 2.0 mi ENE 11.5 mph 17.3 mph 0.00 in Snow Light Snow
12:42 PM 35.1 °F 25.9 °F 23.0 °F 61% 29.99 in 1.5 mi ENE 13.8 mph 18.4 mph 0.00 in Snow Light Snow
12:53 PM 35.1 °F 25.9 °F 24.1 °F 64% 30.03 in 1.5 mi NE 13.8 mph - 0.00 in Snow Light Snow
1:00 PM 35.1 °F 27.4 °F 23.0 °F 61% 29.99 in 1.2 mi ENE 10.4 mph - 0.00 in Snow Light Snow
1:17 PM 34.0 °F 28.8 °F 26.1 °F 73% 29.99 in 0.5 mi ENE 5.8 mph - 0.00 in Snow Snow
1:25 PM 34.0 °F 26.0 °F 26.1 °F 73% 29.98 in 0.5 mi NE 10.4 mph - 0.00 in Snow Snow
1:53 PM 34.0 °F 26.0 °F 27.0 °F 75% 30.02 in 0.5 mi ENE 10.4 mph - 0.01 in Snow Snow
2:53 PM 34.0 °F 23.8 °F 26.1 °F 73% 30.00 in 1.0 mi NE 16.1 mph - 0.00 in Snow Light Snow
3:05 PM 34.0 °F 25.0 °F 26.1 °F 73% 29.96 in 0.8 mi NE 12.7 mph - 0.00 in Snow Light Snow
3:23 PM 34.0 °F 25.5 °F 26.1 °F 73% 29.95 in 0.5 mi NE 11.5 mph - 0.00 in Snow Snow
3:53 PM 33.1 °F 23.0 °F 27.0 °F 78% 29.99 in 0.5 mi ENE 15.0 mph 20.7 mph 0.00 in Snow Snow
4:53 PM 33.1 °F 22.2 °F 25.0 °F 72% 29.97 in 0.5 mi NE 17.3 mph 24.2 mph 0.00 in Snow Snow
5:53 PM 33.1 °F 24.9 °F 26.1 °F 75% 29.98 in 1.5 mi NE 10.4 mph - 0.00 in Snow Light Snow
6:06 PM 33.1 °F 23.0 °F 24.1 °F 70% 29.94 in 1.8 mi NE 15.0 mph 23.0 mph 0.00 in Snow Light Snow
6:15 PM 33.1 °F 24.9 °F 24.1 °F 70% 29.94 in 1.5 mi ENE 10.4 mph - 0.00 in Snow Light Snow
6:18 PM 33.1 °F 23.9 °F 24.1 °F 70% 29.94 in 1.2 mi ENE 12.7 mph 20.7 mph 0.00 in Snow Light Snow
6:46 PM 32.0 °F 25.6 °F 25.0 °F 75% 29.94 in 0.8 mi ENE 6.9 mph - 0.00 in Snow Light Snow
6:53 PM 32.0 °F 23.6 °F 25.0 °F 75% 29.99 in 0.8 mi ENE 10.4 mph - 0.00 in Snow Light Snow
7:14 PM 32.0 °F 22.1 °F 24.1 °F 73% 29.95 in 0.8 mi ENE 13.8 mph - 0.00 in Snow Light Snow
7:21 PM 32.0 °F 23.6 °F 24.1 °F 73% 29.95 in 0.8 mi ENE 10.4 mph 20.7 mph 0.00 in Snow Light Snow
7:53 PM 30.9 °F 23.5 °F 24.1 °F 76% 29.99 in 0.8 mi NE 8.1 mph - 0.01 in Snow Light Snow
8:03 PM 30.9 °F 22.2 °F 25.0 °F 79% 29.95 in 1.0 mi NE 10.4 mph - 0.00 in Snow Light Snow
8:16 PM 32.0 °F 24.2 °F 25.0 °F 75% 29.94 in 1.5 mi NNE 9.2 mph - 0.00 in Snow Light Snow
8:43 PM 32.0 °F 24.2 °F 25.0 °F 75% 29.93 in 2.0 mi NE 9.2 mph - 0.00 in Snow Light Snow
8:53 PM 32.0 °F 23.6 °F 25.0 °F 75% 29.98 in 2.5 mi NE 10.4 mph - 0.00 in Snow Light Snow
9:05 PM 32.0 °F 23.6 °F 24.1 °F 73% 29.93 in 3.0 mi NE 10.4 mph - 0.00 in Snow Light Snow
9:15 PM 32.0 °F 23.6 °F 24.1 °F 73% 29.92 in 2.5 mi NE 10.4 mph - 0.00 in Snow Light Snow
9:35 PM 30.9 °F 23.5 °F 24.1 °F 76% 29.92 in 3.0 mi NE 8.1 mph - 0.00 in Snow Light Snow
9:38 PM 30.9 °F 21.7 °F 24.1 °F 76% 29.92 in 3.0 mi NE 11.5 mph - 0.00 in Snow Light Snow
10:53 PM 30.9 °F 21.7 °F 23.0 °F 72% 29.95 in 10.0 mi NE 11.5 mph - 0.00 in   Overcast
11:09 PM 30.9 °F 22.8 °F 24.1 °F 76% 29.90 in 10.0 mi NE 9.2 mph - N/A   Overcast
11:53 PM 30.9 °F 20.7 °F 23.0 °F 72% 29.93 in 10.0 mi NNE 13.8 mph - N/A   Overcast